[[{"header":{"parameterUnit":"m.s-1","parameterCategory":1,"la1":30.2991,"la2":30.254,"lo1":-89.0895,"lo2":-89.0444,"dx":0.0017,"dy":0.0017,"nx":28,"ny":28,"refTime":"2023-01-27T15:00:00:Z","depth":0,"parameterNumber":2,"parameterNumberName":"U-component_of_WINDS"},"data":[0,0,0,0,0,0,0,0,0,0,0,0,0,0,0,0,0,0,0,0,0,0,0,0,0,0,0,0,0,0,0,0,0,0,0,0,0,0,0,0,0,0,0,0,0,0,0,0,0,0,0,0,0,0,0,0,0,0,-3.8229,-3.8229,0,-3.8288,-3.8289,-3.829,-3.8222,-3.8219,-3.8217,-3.8214,-3.8271,-3.8275,-3.8279,0,0,0,0,0,0,0,0,0,0,0,0,0,-3.8052,-3.8056,-3.8228,-3.8229,-3.823,-3.8288,-3.8289,-3.829,-3.8222,-3.8219,-3.8216,-3.8213,-3.827,-3.8275,-3.8279,0,0,0,0,0,0,0,0,0,0,0,0,0,-3.8122,-3.8057,-3.8228,-3.8203,-3.8202,-3.8288,-3.8289,-3.829,-3.8223,-3.8219,-3.8215,-3.8212,-3.8269,-3.8274,-3.828,-3.8393,0,0,-3.8298,-3.83,0,0,0,0,0,0,0,0,-3.8118,-3.8129,-3.8206,-3.8205,-3.8203,-3.8244,-3.8248,-3.8324,-3.8224,-3.8215,-3.8214,-3.821,-3.8265,-3.8271,-3.829,-3.8396,-3.8398,-3.8298,-3.8302,-3.8305,-3.8306,0,0,0,0,0,0,0,-3.8113,-3.8126,-3.8252,-3.8207,-3.8206,-3.8188,-3.8194,-3.8262,-3.826,-3.8215,-3.821,-3.8219,-3.8263,-3.8285,-3.8291,-3.8399,-3.8298,-3.8304,-3.8307,-3.8309,-3.8599,-3.8603,0,0,0,0,0,0,-3.8112,-3.8122,-3.825,-3.8254,-3.8151,-3.8194,-3.8201,-3.8235,-3.826,-3.826,-3.8222,-3.8215,-3.8277,-3.8285,-3.8293,-3.8426,-3.8304,-3.831,-3.8313,-3.8595,-3.86,-3.8605,0,0,0,0,0,0,-3.8108,-3.8124,-3.8248,-3.8187,-3.8201,-3.8202,-3.824,-3.8238,-3.8259,-3.8265,-3.8264,-3.8244,-3.8274,-3.8285,-3.8369,-3.8427,-3.8313,-3.8318,-3.859,-3.8597,-3.8603,-3.8693,0,0,0,0,0,0,-3.8104,-3.8123,-3.8167,-3.8188,-3.8205,-3.8324,-3.8244,-3.8242,-3.827,-3.8262,-3.8285,-3.8286,-3.8272,-3.836,-3.8375,-3.8433,-3.8323,-3.8585,-3.8593,-3.8601,-3.8685,-3.8702,-3.8716,0,0,0,0,0,-3.8098,-3.8189,-3.8169,-3.8185,-3.8259,-3.8327,-3.8336,-3.832,-3.8275,-3.8318,-3.8322,-3.8285,-3.8419,-3.837,-3.8385,-3.8446,-3.8581,-3.8591,-3.86,-3.8678,-3.8698,-3.8716,0,0,0,0,0,0,-3.8171,-3.8191,-3.8169,-3.827,-3.8298,-3.8315,-3.8369,-3.8342,-3.8382,-3.8372,-3.8349,-3.8355,-3.8444,-3.8454,-3.8398,-3.8557,-3.8493,-3.8506,-3.8546,-3.8566,-3.8581,-3.8576,-3.8327,0,0,0,0,0,-3.82,-3.8255,-3.8268,-3.8356,-3.8371,-3.8368,-3.8397,-3.8383,-3.8409,-3.842,-3.843,-3.8456,-3.8504,-3.8536,-3.8581,-3.8687,-3.869,-3.8737,-3.8752,-3.8765,-3.8776,-3.8832,-3.8852,-3.8636,-3.8636,-3.8636,0,0,-3.8258,-3.8276,-3.8311,-3.8372,-3.8391,-3.8447,-3.8378,-3.844,-3.8481,-3.8429,-3.8509,-3.8518,-3.8545,-3.8641,-3.8684,-3.8652,-3.8837,-3.8777,-3.8788,-3.8791,-3.8844,-3.8864,-3.8882,-3.8642,-3.8641,-3.864,0,0,-3.8393,-3.8413,-3.8487,-3.8509,-3.8541,-3.8538,-3.8557,-3.8579,-3.8583,-3.8664,-3.8626,-3.8674,-3.8758,-3.8779,-3.8801,-3.8947,-3.8914,-3.8963,-3.9043,-3.9098,-3.9115,-3.913,-3.918,-3.9199,-3.8974,-3.8974,-3.8974,0,-3.846,-3.8544,-3.8529,-3.8594,-3.8621,-3.858,-3.8655,-3.8677,-3.872,-3.8739,-3.8704,-3.8809,-3.8825,-3.8924,-3.896,-3.898,-3.8999,-3.8958,-3.9114,-3.9129,-3.9142,-3.919,-3.9209,-3.8979,-3.8979,-3.8978,-3.8978,0,-3.8626,-3.8685,-3.8742,-3.8787,-3.8821,-3.8891,-3.8885,-3.8921,-3.8905,-3.8907,-3.8989,-3.9008,-3.9055,-3.9078,-3.9062,-3.9176,-3.9155,-3.9118,-3.9052,-3.9169,-3.9213,-3.9231,-3.8987,-3.8985,-3.8984,-3.8982,0,0,-3.8804,-3.8843,-3.8863,-3.8883,-3.8916,-3.8961,-3.903,-3.9078,-3.9109,-3.9142,-3.9197,-3.927,-3.9236,-3.9261,-3.9247,-3.9296,-3.9409,-3.9252,-3.9253,-3.9279,-3.9534,-3.956,-3.9582,-3.9389,-3.9393,-3.9396,-3.9531,0,-3.8938,-3.9057,-3.9046,-3.9159,-3.9213,-3.9176,-3.9235,-3.9261,-3.9266,-3.9311,-3.9315,-3.9367,-3.9319,-3.9334,-3.9381,-3.9386,-3.946,-3.9376,-3.9438,-3.9441,-3.9429,-3.9605,-3.9633,-3.976,-3.9549,-3.9552,-3.9554,0,-3.9108,-3.9148,-3.9267,-3.9293,-3.9315,-3.9369,-3.9412,-3.9457,-3.9487,-3.9486,-3.9516,-3.9494,-3.9562,-3.9499,-3.9591,-3.9535,-3.956,-3.9567,-3.9572,-3.9574,-3.9502,-3.961,-3.98,-3.9818,-3.9581,-3.9579,-3.9577,0,-3.9224,-3.9308,-3.939,-3.9409,-3.9441,-3.948,-3.9495,-3.9521,-3.9551,-3.9589,-3.9608,-3.9654,-3.9678,-3.9714,-3.9705,-3.966,-3.9799,-3.9735,-3.9799,-3.9799,-3.9827,-3.9824,-4.0021,-3.9849,-3.9849,-3.9848,-3.9848,0,-3.9372,-3.9445,-3.9442,-3.9492,-3.9573,-3.9561,-3.9642,-3.9652,-3.9676,-3.9726,-3.9698,-3.9746,-3.9733,-3.978,-3.9774,-3.9851,-3.9862,-3.9863,-3.9859,-3.9863,-3.9863,-3.9877,-3.9867,-3.9853,-3.9852,-3.9851,-3.985,0,-3.9512,-3.9514,-3.96,-3.9626,-3.9634,-3.9692,-3.9713,-3.976,-3.9763,-3.9828,-3.9842,-3.9847,-3.9901,-3.9897,-3.9958,-3.9954,-4.0048,-4.0036,-4.0038,-4.0035,-4.0098,-4.0091,-4.0307,-4.0334,-4.0148,-4.015,-4.0151,0,-3.9605,-3.9661,-3.9693,-3.9726,-3.9744,-3.9797,-3.9829,-3.982,-3.9853,-3.9892,-3.9934,-3.9986,-4.0027,-4.0116,-4.0123,-4.017,-4.0157,-4.023,-4.0163,-4.0166,-4.0155,-4.015,-4.0155,-4.0241,-4.0243,-4.0245,-4.0247,0,-3.9768,-3.9767,-3.9814,-3.9862,-3.9901,-3.9938,-3.9971,-4.0,-3.9994,-4.0033,-4.009,-4.0122,-4.0185,-4.0237,-4.0282,-4.0296,-4.027,-4.0269,-4.0285,-4.0288,-4.0286,-4.0285,-4.0071,-4.0262,-4.0261,-4.026,-4.0259,-4.0258,-3.9886,-3.9934,-3.9965,-4.0018,-4.0043,-4.0076,-4.0121,-4.0132,-4.0179,-4.0231,-4.0223,-4.0286,-4.0314,-4.0372,-4.0392,-4.044,-4.0413,-4.0438,-4.0444,-4.0449,-4.0455,-4.0282,-4.0448,-4.0448,-4.0447,-4.0447,-4.0447,0,-4.0046,-4.0065,-4.0114,-4.0163,-4.0206,-4.0182,-4.0218,-4.0254,-4.031,-4.034,-4.0382,-4.0447,-4.0498,-4.0511,-4.056,-4.0596,-4.0585,-4.0608,-4.0604,-4.0607,-4.0477,-4.0457,-4.0616,-4.0616,-4.0616,-4.0616,-4.0616,-4.0616,-4.0133,-4.0213,-4.0216,-4.0308,-4.0326,-4.0388,-4.0411,-4.0441,-4.0465,-4.0539,-4.0582,-4.0592,-4.0615,-4.0665,-4.0711,-4.0713,-4.0731,-4.0759,-4.0756,-4.0634,-4.0617,-4.06,-4.0581,-4.0764,-4.0764,-4.0882,-4.0883,-4.0884]},{"header":{"parameterUnit":"m.s-1","parameterCategory":1,"la1":30.2991,"la2":30.254,"lo1":-89.0895,"lo2":-89.0444,"dx":0.0017,"dy":0.0017,"nx":28,"ny":28,"refTime":"2023-01-27T15:00:00:Z","depth":0,"parameterNumber":3,"parameterNumberName":"V-component_of_WINDS"},"data":[0,0,0,0,0,0,0,0,0,0,0,0,0,0,0,0,0,0,0,0,0,0,0,0,0,0,0,0,0,0,0,0,0,0,0,0,0,0,0,0,0,0,0,0,0,0,0,0,0,0,0,0,0,0,0,0,0,0,1.1583,1.1582,0,1.1513,1.1512,1.1512,1.1398,1.1396,1.1394,1.1392,1.132,1.132,1.132,0,0,0,0,0,0,0,0,0,0,0,0,0,1.1619,1.1619,1.1583,1.1582,1.1581,1.1513,1.1512,1.1511,1.1399,1.1396,1.1394,1.1391,1.132,1.132,1.132,0,0,0,0,0,0,0,0,0,0,0,0,0,1.1582,1.1619,1.1583,1.1517,1.151,1.1514,1.1512,1.1511,1.1399,1.1396,1.1393,1.139,1.132,1.132,1.132,1.1382,0,0,1.132,1.132,0,0,0,0,0,0,0,0,1.1584,1.1581,1.1527,1.1521,1.1514,1.1461,1.1498,1.1468,1.14,1.1441,1.1392,1.1388,1.1369,1.1365,1.1359,1.1379,1.1376,1.132,1.132,1.132,1.132,0,0,0,0,0,0,0,1.1587,1.1583,1.1555,1.1527,1.1518,1.1491,1.1482,1.1492,1.1423,1.1437,1.1429,1.1422,1.1365,1.1359,1.1356,1.1374,1.132,1.132,1.132,1.132,1.1445,1.1448,0,0,0,0,0,0,1.1599,1.1586,1.1557,1.1553,1.1542,1.1493,1.1483,1.1481,1.1423,1.1411,1.1425,1.1417,1.1361,1.1356,1.1353,1.1424,1.132,1.132,1.132,1.1442,1.1446,1.1449,0,0,0,0,0,0,1.16,1.1598,1.156,1.1567,1.156,1.1495,1.1494,1.1482,1.1475,1.1414,1.1401,1.1432,1.1358,1.1353,1.1376,1.1419,1.132,1.132,1.1438,1.1443,1.1447,1.1564,0,0,0,0,0,0,1.1602,1.1599,1.1621,1.1569,1.156,1.1585,1.1497,1.1482,1.1476,1.1465,1.1416,1.1405,1.1355,1.1377,1.1376,1.1418,1.132,1.1433,1.144,1.1446,1.1556,1.1573,1.1587,0,0,0,0,0,1.1604,1.1656,1.1623,1.162,1.1587,1.1587,1.1582,1.1524,1.148,1.1502,1.1463,1.1407,1.1415,1.138,1.1379,1.1421,1.143,1.1438,1.1445,1.155,1.157,1.1587,0,0,0,0,0,0,1.1714,1.1648,1.161,1.1647,1.1624,1.1568,1.1594,1.1546,1.1534,1.1525,1.1452,1.1442,1.1476,1.145,1.1413,1.1479,1.1414,1.1422,1.1494,1.1513,1.1528,1.1533,1.132,0,0,0,0,0,1.1743,1.1749,1.169,1.1729,1.1719,1.166,1.1657,1.1614,1.1587,1.1576,1.1538,1.1514,1.1511,1.1511,1.1504,1.1553,1.1541,1.1581,1.1597,1.1609,1.1616,1.1642,1.166,1.1474,1.1474,1.1473,0,0,1.1802,1.1767,1.1774,1.175,1.1727,1.1735,1.1651,1.1663,1.1668,1.1577,1.1597,1.157,1.1538,1.1575,1.1589,1.1555,1.1666,1.1619,1.163,1.1629,1.1652,1.1669,1.1685,1.1479,1.1478,1.1477,0,0,1.1914,1.1888,1.1918,1.1897,1.1864,1.1824,1.1832,1.1784,1.1762,1.1782,1.1715,1.1721,1.1717,1.1697,1.1687,1.1797,1.1745,1.1797,1.1876,1.1902,1.1916,1.1929,1.1969,1.1984,1.1804,1.1804,1.1805,0,1.1992,1.2001,1.1939,1.1955,1.1948,1.1868,1.1899,1.1881,1.1848,1.1844,1.1807,1.1803,1.1775,1.1807,1.1835,1.1829,1.1836,1.1801,1.1919,1.1931,1.1942,1.198,1.1995,1.1811,1.181,1.181,1.1809,0,1.2099,1.2106,1.2135,1.2106,1.2101,1.2125,1.2067,1.207,1.2029,1.1994,1.2016,1.1982,1.1968,1.1973,1.1932,1.2,1.198,1.1933,1.1865,1.1968,1.2002,1.2015,1.182,1.1818,1.1816,1.1814,0,0,1.2275,1.2214,1.2226,1.2213,1.2172,1.2177,1.2198,1.2186,1.2191,1.2171,1.2187,1.2188,1.2145,1.2133,1.209,1.2113,1.2204,1.2062,1.2061,1.2091,1.2279,1.2315,1.2333,1.2171,1.2173,1.2175,1.2282,0,1.2378,1.241,1.2357,1.2402,1.2409,1.2336,1.2354,1.2332,1.2301,1.2303,1.2268,1.2271,1.2212,1.2205,1.2225,1.2189,1.2241,1.2181,1.2185,1.2186,1.2195,1.235,1.2388,1.249,1.2295,1.2297,1.2299,0,1.2502,1.2491,1.2537,1.2496,1.2497,1.2514,1.2501,1.2504,1.2478,1.2454,1.2444,1.2394,1.2412,1.2349,1.2375,1.2335,1.2335,1.2318,1.232,1.2318,1.2248,1.2352,1.2521,1.2537,1.2319,1.2317,1.2316,0,1.2627,1.2623,1.265,1.2642,1.2595,1.2609,1.259,1.2561,1.2559,1.2547,1.2545,1.2536,1.2531,1.2525,1.2475,1.2433,1.2507,1.2439,1.2488,1.249,1.2506,1.2505,1.2678,1.2507,1.2506,1.2506,1.2506,0,1.2747,1.2778,1.2706,1.2723,1.2757,1.2697,1.2732,1.2705,1.2681,1.2692,1.2629,1.2641,1.2574,1.2579,1.254,1.2568,1.2566,1.2548,1.2537,1.2553,1.2556,1.2551,1.2542,1.251,1.2509,1.2509,1.2508,0,1.2891,1.2844,1.2869,1.2824,1.2814,1.2841,1.2802,1.2816,1.2783,1.2798,1.2798,1.2746,1.2749,1.2699,1.2691,1.2665,1.2712,1.2688,1.272,1.2713,1.2765,1.2761,1.2939,1.296,1.2777,1.2779,1.278,0,1.297,1.2993,1.2951,1.2955,1.294,1.2946,1.2943,1.2886,1.2886,1.2861,1.2879,1.2878,1.2873,1.2882,1.2843,1.2838,1.2814,1.2878,1.2813,1.283,1.2816,1.2815,1.2818,1.2891,1.2893,1.2895,1.2896,0,1.3117,1.3093,1.3092,1.3085,1.3084,1.3075,1.3062,1.3069,1.3007,1.3011,1.3014,1.3011,1.3005,1.3005,1.2994,1.2974,1.2926,1.2918,1.2929,1.2945,1.2963,1.2955,1.2757,1.2913,1.2911,1.291,1.2909,1.2909,1.323,1.3248,1.3223,1.3225,1.3209,1.3199,1.3212,1.3181,1.3183,1.3174,1.3141,1.3151,1.3127,1.3107,1.3093,1.3101,1.307,1.3086,1.3089,1.3094,1.3104,1.2963,1.3098,1.3098,1.3097,1.3097,1.3096,0,1.3374,1.3355,1.3357,1.3342,1.3345,1.33,1.3284,1.3289,1.3299,1.3282,1.328,1.3285,1.3286,1.3249,1.3245,1.3258,1.3236,1.3259,1.3257,1.3254,1.3132,1.3123,1.3277,1.3277,1.3277,1.3277,1.3277,1.3277,1.3448,1.3477,1.3451,1.3472,1.3452,1.3462,1.3457,1.3449,1.3435,1.3444,1.3445,1.3421,1.3396,1.3391,1.339,1.3379,1.3381,1.3412,1.3394,1.328,1.3262,1.3246,1.3237,1.3413,1.3413,1.3516,1.3517,1.3517]}]]